Find Local Weather

World > North America > United States > New York

North Petersburg, New York Regional Weather

Lat: 42.82N, Lon: 73.33W
Wx Zone: NYZ054
Feedback

North Petersburg, NY Regional Weather

Expires:201905271000;;535960
ASUS41 KALY 270910
RWRALY

NEW YORK STATE HOURLY WEATHER ROUNDUP
NATIONAL WEATHER SERVICE ALBANY NY
500 AM EDT MON MAY 27 2019

NOTE: "FAIR" INDICATES FEW OR NO CLOUDS BELOW 12,000 FEET WITH NO
SIGNIFICANT WEATHER AND/OR NO OBSTRUCTIONS TO VISIBILITY.


NYZ032-033-038>043-046>054-057>066-NYZ062>081-082-084-271000-
EAST

  
CITY           SKY/WX    TMP DP  RH WIND       PRES   REMARKS
ALBANY         MOCLDY    58  50  75 N6        29.94R                  
GLENS FALLS    FAIR      53  49  86 N3        29.94R                  
POUGHKEEPSIE   FAIR      54  51  90 CALM      29.91R                  
NEWBURGH       CLEAR     55  54  94 W6        29.92R                  
MONTGOMERY     FAIR      54  52  93 SE6       29.91R                  
WHITE PLAINS   FAIR      61  55  81 NW12      29.90R                  
ISLIP          FAIR      64  57  78 N7        29.87R                  
NEW YORK CITY  FAIR      67  50  54 NW14      29.88R                  
CENTRAL PARK   FAIR      66  50  56 VRB6      29.93R                  
$$


SKY/WX - Weather  TMP - Temperature  DP - Dew Point  RH - Relative Humidity
WIND - Wind Direction/Speed PRES - Barometric Pressure VSB - Visibility
WCI - Wind Chill Index E13G22 Wind - East Wind 13 mph/Gusts of 22 mph